Terminal Aerodrome Forecast
Issued by NWS

Home | Current Version | Previous Version | Text Only | Print | Product List | Glossary On
Versions: 1 2 3 4 5 6 7 8 9 10 11 12 13 14 15 16 17 18 19 20 21 22 23 24 25
000
FTUS44 KLIX 282300
TAFHDC
TAF
KHDC 282323Z 2900/2924 13005KT P6SM SCT050
     FM291000 07004KT P6SM SCT100 BKN250
     FM291500 12007KT P6SM VCSH SCT040 BKN060
      TEMPO 2920/2924 3SM -TSRA SCT030CB BKN040=

USA.gov is the U.S. government's official web portal to all federal, state and local government web resources and services.